Surface/Precipitation History
04/25/2015 16:31  to  4/26/2015 16:31
Change End Date:
Date/Time
(MDT)
Sf
Temp Chem Water Layer Surface Precipitation
Sf Sub Frz Factor Pct Depth IcePct Cond Salin Type Intens Accum Rate
04/26/2015 16:27 Dry 48.2F 48F - - - - - 0 mhos 0 None None - -
04/26/2015 16:22 Dry 48.6F 49F - - - - - 0 mhos 0 None None - -
04/26/2015 16:12 Dry 49.3F 49F - - - - - 0 mhos 0 None None - -
04/26/2015 16:12 Dry 49.3F 49F - - - - - 0 mhos 0 None None - -
04/26/2015 16:01 Dry 49.5F 49F - - - - - 0 mhos 0 None None - -
04/26/2015 15:57 Dry 49.5F 49F - - - - - 0 mhos 0 None None - -
04/26/2015 15:51 Dry 49.8F 49F - - - - - 0 mhos 0 None None - -
04/26/2015 15:42 Dry 50.4F 49F - - - - - 0 mhos 0 None None - -
04/26/2015 15:41 Dry 50.4F 49F - - - - - 0 mhos 0 None None - -
04/26/2015 15:31 Dry 50.9F 50F - - - - - 0 mhos 0 None None - -
04/26/2015 15:27 Dry 51.1F 50F - - - - - 0 mhos 0 None None - -
04/26/2015 15:21 Dry 51.4F 50F - - - - - 0 mhos 0 None None - -
04/26/2015 15:12 Dry 52.2F 50F - - - - - 0 mhos 0 None None - -
04/26/2015 15:11 Dry 52.0F 50F - - - - - 0 mhos 0 None None - -
04/26/2015 15:01 Dry 50.9F 50F - - - - - 0 mhos 1 None None - -
Date/Time
(MDT)
Sf
Temp Chem Water Layer Surface Precipitation
Sf Sub Frz Factor Pct Depth IcePct Cond Salin Type Intens Accum Rate
04/26/2015 14:57 Dry 51.3F 49F - - - - - 0 mhos 2 None None - -
04/26/2015 14:51 Dry 51.4F 49F - - - - - 0 mhos 5 None None - -
04/26/2015 14:42 Dry 52.5F 48F - - - - - 0 mhos 11 None None - -
04/26/2015 14:41 Dry 52.9F 48F - - - - - 0 mhos 12 None None - -
04/26/2015 14:31 Trace Moisture 51.8F 47F - 5 - - - 0 mhos 16 None None - -
04/26/2015 14:27 Trace Moisture 50.9F 47F - 5 - - - 0 mhos 17 None None - -
04/26/2015 14:21 Trace Moisture 49.6F 46F - 5 - - - 0 mhos 19 None None - -
04/26/2015 14:12 Trace Moisture 48.7F 46F - 5 - - - 0 mhos 23 None None - -
04/26/2015 14:11 Trace Moisture 48.7F 46F - 5 - - - 0 mhos 22 None None - -
04/26/2015 14:01 Trace Moisture 48.2F 45F - 5 - - - 0 mhos 20 None None - -
04/26/2015 13:57 Trace Moisture 47.8F 45F - 5 - - - 0 mhos 19 None None - -
04/26/2015 13:51 Trace Moisture 47.5F 45F - 5 - - - 0 mhos 22 None None - -
04/26/2015 13:42 Trace Moisture 46.4F 45F - 5 - - - 0 mhos 20 None None - -
04/26/2015 13:41 Trace Moisture 46.2F 45F - 5 - - - 0 mhos 20 None None - -
04/26/2015 13:31 Trace Moisture 46.0F 44F - 5 - - - 0 mhos 9 None None - -
Date/Time
(MDT)
Sf
Temp Chem Water Layer Surface Precipitation
Sf Sub Frz Factor Pct Depth IcePct Cond Salin Type Intens Accum Rate
04/26/2015 13:27 Trace Moisture 46.0F 44F - 10 - - - 0 mhos 12 None None - -
04/26/2015 13:21 Trace Moisture 45.0F 44F - 10 - - - 0 mhos 13 None None - -
04/26/2015 13:12 Trace Moisture 44.2F 44F - 5 - - - 0 mhos 12 None None - -
04/26/2015 13:10 Trace Moisture 44.1F 44F - 5 - - - 0 mhos 4 None None - -
04/26/2015 13:00 Trace Moisture 43.9F 44F - 5 - - - 0 mhos 7 None None - -
04/26/2015 12:57 Trace Moisture 43.9F 44F - 5 - - - 0 mhos 11 None None - -
04/26/2015 12:50 Trace Moisture 43.7F 44F - 5 - - - 0 mhos 9 None None - -
04/26/2015 12:42 Trace Moisture 44.6F 44F - 5 - - - 0 mhos 8 None None - -
04/26/2015 12:40 Trace Moisture 44.2F 44F - 5 - - - 0 mhos 8 None None - -
04/26/2015 12:30 Trace Moisture 44.6F 44F - 5 - - - 0 mhos 6 None None - -
04/26/2015 12:27 Trace Moisture 44.8F 44F - 5 - - - 0 mhos 10 None None - -
04/26/2015 12:20 Trace Moisture 44.6F 44F - 5 - - - 0 mhos 8 None None - -
04/26/2015 12:12 Trace Moisture 44.8F 44F - 5 - - - 0 mhos 8 None None - -
04/26/2015 12:10 Trace Moisture 45.1F 44F - 5 - - - 0 mhos 8 None None - -
04/26/2015 12:00 Trace Moisture 44.6F 43F - 5 - - - 0 mhos 3 None None - -
Date/Time
(MDT)
Sf
Temp Chem Water Layer Surface Precipitation
Sf Sub Frz Factor Pct Depth IcePct Cond Salin Type Intens Accum Rate
04/26/2015 11:57 Trace Moisture 44.4F 43F - 5 - - - 0 mhos 7 None None - -
04/26/2015 11:50 Trace Moisture 45.0F 43F - 5 - - - 0 mhos 7 None None - -
04/26/2015 11:42 Trace Moisture 44.1F 42F - 5 - - - 0 mhos 7 None None - -
04/26/2015 11:40 Trace Moisture 43.9F 42F - 5 - - - 0 mhos 7 None None - -
04/26/2015 11:30 Trace Moisture 42.6F 42F - 5 - - - 0 mhos 7 None None - -
04/26/2015 11:27 Trace Moisture 42.6F 42F - 5 - - - 0 mhos 6 None None - -
04/26/2015 11:20 Trace Moisture 41.5F 41F - 5 - - - 0 mhos 5 None None - -
04/26/2015 11:12 Trace Moisture 41.2F 41F - 5 - - - 0 mhos 4 None None - -
04/26/2015 11:10 Trace Moisture 41.2F 41F - 5 - - - 0 mhos 4 None None - -
04/26/2015 11:00 Trace Moisture 41.4F 41F - 5 - - - 0 mhos 4 None None - -
04/26/2015 10:57 Trace Moisture 40.6F 41F - 5 - - - 0 mhos 4 None None - -
04/26/2015 10:50 Trace Moisture 41.0F 40F - 5 - - - 0 mhos 4 None None - -
04/26/2015 10:42 Trace Moisture 40.8F 40F - 5 - - - 0 mhos 4 None None - -
04/26/2015 10:40 Trace Moisture 40.6F 40F - 5 - - - 0 mhos 4 None None - -
04/26/2015 10:30 Trace Moisture 39.9F 40F - 5 - - - 0 mhos 4 None None - -
Date/Time
(MDT)
Sf
Temp Chem Water Layer Surface Precipitation
Sf Sub Frz Factor Pct Depth IcePct Cond Salin Type Intens Accum Rate
04/26/2015 10:27 Trace Moisture 39.6F 39F - 5 - - - 0 mhos 4 None None - -
04/26/2015 10:20 Trace Moisture 39.4F 39F - 5 - - - 0 mhos 3 None None - -
04/26/2015 10:12 Trace Moisture 38.7F 39F - 5 - - - 0 mhos 4 None None - -
04/26/2015 10:10 Trace Moisture 38.3F 39F - 5 - - - 0 mhos 3 None None - -
04/26/2015 10:00 Trace Moisture 37.8F 38F - 5 - - - 0 mhos 3 None None - -
04/26/2015 09:57 Trace Moisture 37.8F 38F - 5 - - - 0 mhos 3 None None - -
04/26/2015 09:49 Trace Moisture 37.0F 38F - 5 - - - 0 mhos 3 None None - -
04/26/2015 09:42 Trace Moisture 36.5F 38F - 5 - - - 0 mhos 3 None None - -
04/26/2015 09:39 Trace Moisture 36.1F 38F - 5 - - - 0 mhos 3 None None - -
04/26/2015 09:29 Trace Moisture 35.2F 38F - 5 - - - 0 mhos 3 None None - -
04/26/2015 09:27 Trace Moisture 35.4F 38F - 5 - - - 0 mhos 3 None None - -
04/26/2015 09:19 Trace Moisture 35.4F 37F - 5 - - - 0 mhos 3 None None - -
04/26/2015 09:12 Trace Moisture 34.5F 37F - 5 - - - 0 mhos 3 None None - -
04/26/2015 09:09 Trace Moisture 34.5F 37F - 5 - - - 0 mhos 3 None None - -
04/26/2015 08:59 Trace Moisture 34.2F 37F - 5 - - - 0 mhos 3 None None - -
Date/Time
(MDT)
Sf
Temp Chem Water Layer Surface Precipitation
Sf Sub Frz Factor Pct Depth IcePct Cond Salin Type Intens Accum Rate
04/26/2015 08:57 Trace Moisture 34.2F 37F - 5 - - - 0 mhos 3 None None - -
04/26/2015 08:49 Trace Moisture 33.8F 38F - 5 - - - 0 mhos 3 None None - -
04/26/2015 08:42 Trace Moisture 34.0F 38F - 5 - - - 0 mhos 3 None None - -
04/26/2015 08:39 Trace Moisture 34.0F 38F - 5 - - - 0 mhos 3 None None - -
04/26/2015 08:29 Trace Moisture 34.0F 38F - 5 - - - 0 mhos 3 None None - -
04/26/2015 08:27 Trace Moisture 33.8F 38F - 5 - - - 0 mhos 3 None None - -
04/26/2015 08:19 Trace Moisture 33.8F 38F - 5 - - - 0 mhos 3 None None - -
04/26/2015 08:12 Trace Moisture 33.8F 38F - 5 - - - 0 mhos 3 None None - -
04/26/2015 08:09 Trace Moisture 33.8F 38F - 5 - - - 0 mhos 3 None None - -
04/26/2015 07:59 Trace Moisture 34.0F 38F - 5 - - - 0 mhos 3 None None - -
04/26/2015 07:57 Trace Moisture 34.0F 38F - 5 - - - 0 mhos 3 None None - -
04/26/2015 07:49 Trace Moisture 34.2F 38F - 5 - - - 0 mhos 4 None None - -
04/26/2015 07:42 Trace Moisture 34.0F 38F - 5 - - - 0 mhos 4 None None - -
04/26/2015 07:39 Trace Moisture 34.0F 38F - 5 - - - 0 mhos 4 None None - -
04/26/2015 07:29 Trace Moisture 33.8F 39F - 5 - - - 0 mhos 4 None None - -
Date/Time
(MDT)
Sf
Temp Chem Water Layer Surface Precipitation
Sf Sub Frz Factor Pct Depth IcePct Cond Salin Type Intens Accum Rate
04/26/2015 07:27 Trace Moisture 33.8F 39F - 5 - - - 0 mhos 4 None None - -
04/26/2015 07:19 Trace Moisture 33.8F 39F - 5 - - - 0 mhos 5 None None - -
04/26/2015 07:12 Trace Moisture 33.8F 40F - 5 - - - 0 mhos 5 None None - -
04/26/2015 07:09 Trace Moisture 34.0F 40F - 5 - - - 0 mhos 6 None None - -
04/26/2015 06:58 Trace Moisture 34.3F 40F - 10 - - - 0 mhos 8 None None - -
04/26/2015 06:57 Trace Moisture 34.2F 40F - 5 - - - 0 mhos 3 None None - -
04/26/2015 06:48 Trace Moisture 34.7F 40F - 20 - - - 0 mhos 8 None None - -
04/26/2015 06:42 Trace Moisture 35.6F 41F - 25 - - - 0 mhos 9 None None - -
04/26/2015 06:38 Trace Moisture 35.8F 41F - 25 - - - 0 mhos 10 None None - -
04/26/2015 06:28 Trace Moisture 35.4F 41F - 15 - - - 0 mhos 11 None None - -
04/26/2015 06:27 Trace Moisture 35.2F 41F - 15 - - - 0 mhos 11 None None - -
04/26/2015 06:18 Trace Moisture 34.9F 41F - 5 - - - 0 mhos 11 None None - -
04/26/2015 06:12 Trace Moisture 35.1F 42F - 10 - - - 0 mhos 18 None None - -
04/26/2015 06:08 Trace Moisture 35.4F 42F - 10 - - - 0 mhos 16 None None - -
04/26/2015 05:58 Trace Moisture 35.8F 42F - 5 - - - 0 mhos 10 None None - -
Date/Time
(MDT)
Sf
Temp Chem Water Layer Surface Precipitation
Sf Sub Frz Factor Pct Depth IcePct Cond Salin Type Intens Accum Rate
04/26/2015 05:57 Trace Moisture 36.0F 42F - 5 - - - 0 mhos 31 None None - -
04/26/2015 05:48 Trace Moisture 38.1F 43F - 5 - - - 0 mhos 14 None None - -
04/26/2015 05:42 Trace Moisture 38.8F 43F - 5 - - - 0 mhos 1 None None - -
04/26/2015 05:38 Trace Moisture 39.2F 43F - 5 - - - 0 mhos 1 None None - -
04/26/2015 05:28 Trace Moisture 39.4F 43F - 5 - - - 0 mhos 1 None None - -
04/26/2015 05:27 Trace Moisture 39.4F 43F - 5 - - - 0 mhos 1 None None - -
04/26/2015 05:18 Trace Moisture 39.6F 43F - 5 - - - 0 mhos 0 None None - -
04/26/2015 05:13 Trace Moisture 39.6F 43F - 5 - - - 0 mhos 0 None None - -
04/26/2015 05:08 Trace Moisture 39.7F 43F - 5 - - - 0 mhos 0 None None - -
04/26/2015 04:58 Trace Moisture 39.7F 44F - 5 - - - 0 mhos 0 None None - -
04/26/2015 04:57 Trace Moisture 39.7F 44F - 5 - - - 0 mhos 0 None None - -
04/26/2015 04:48 Trace Moisture 40.1F 44F - 5 - - - 0 mhos 1 None None - -
04/26/2015 04:42 Trace Moisture 40.3F 44F - 5 - - - 0 mhos 1 None None - -
04/26/2015 04:38 Trace Moisture 40.5F 44F - 5 - - - 0 mhos 1 None None - -
04/26/2015 04:28 Dry 40.5F 44F - - - - - 0 mhos 1 None None - -
Date/Time
(MDT)
Sf
Temp Chem Water Layer Surface Precipitation
Sf Sub Frz Factor Pct Depth IcePct Cond Salin Type Intens Accum Rate
04/26/2015 04:27 Dry 40.5F 44F - - - - - 0 mhos 1 None None - -
04/26/2015 04:18 Dry 40.5F 44F - - - - - 0 mhos 1 None None - -
04/26/2015 04:12 Dry 40.6F 44F - - - - - 0 mhos 1 None None - -
04/26/2015 04:08 Dry 40.6F 44F - - - - - 0 mhos 1 None None - -
04/26/2015 03:58 Dry 40.6F 45F - - - - - 0 mhos 1 None None - -
04/26/2015 03:57 Dry 40.6F 45F - - - - - 0 mhos 1 None None - -
04/26/2015 03:47 Dry 41.0F 45F - - - - - 0 mhos 1 None None - -
04/26/2015 03:42 Dry 41.2F 45F - - - - - 0 mhos 1 None None - -
04/26/2015 03:37 Dry 41.4F 45F - - - - - 0 mhos 1 None None - -
04/26/2015 03:27 Dry 41.9F 45F - - - - - 0 mhos 1 None None - -
04/26/2015 03:27 Dry 41.9F 45F - - - - - 0 mhos 1 None None - -
04/26/2015 03:17 Dry 42.1F 45F - - - - - 0 mhos 1 None None - -
04/26/2015 03:12 Dry 42.3F 45F - - - - - 0 mhos 1 None None - -
04/26/2015 03:07 Dry 42.3F 45F - - - - - 0 mhos 0 None None - -
04/26/2015 02:57 Dry 42.3F 46F - - - - - 0 mhos 0 None None - -
Date/Time
(MDT)
Sf
Temp Chem Water Layer Surface Precipitation
Sf Sub Frz Factor Pct Depth IcePct Cond Salin Type Intens Accum Rate
04/26/2015 02:57 Dry 42.3F 46F - - - - - 0 mhos 0 None None - -
04/26/2015 02:47 Dry 42.4F 46F - - - - - 0 mhos 0 None None - -
04/26/2015 02:42 Dry 42.4F 46F - - - - - 0 mhos 0 None None - -
04/26/2015 02:37 Dry 42.4F 46F - - - - - 0 mhos 0 None None - -
04/26/2015 02:27 Dry 42.6F 46F - - - - - 0 mhos 0 None None - -
04/26/2015 02:27 Dry 42.6F 46F - - - - - 0 mhos 0 None None - -
04/26/2015 02:17 Dry 42.6F 46F - - - - - 0 mhos 0 None None - -
04/26/2015 02:13 Dry 42.6F 46F - - - - - 0 mhos 0 None None - -
04/26/2015 02:07 Dry 42.8F 46F - - - - - 0 mhos 0 None None - -
04/26/2015 01:57 Dry 42.6F 46F - - - - - 0 mhos 0 None None - -
04/26/2015 01:57 Dry 42.6F 46F - - - - - 0 mhos 0 None None - -
04/26/2015 01:47 Dry 42.6F 46F - - - - - 0 mhos 0 None None - -
04/26/2015 01:42 Dry 42.6F 46F - - - - - 0 mhos 0 None None - -
04/26/2015 01:37 Dry 42.6F 47F - - - - - 0 mhos 0 None None - -
04/26/2015 01:27 Dry 43.2F 47F - - - - - 0 mhos 0 None None - -
Date/Time
(MDT)
Sf
Temp Chem Water Layer Surface Precipitation
Sf Sub Frz Factor Pct Depth IcePct Cond Salin Type Intens Accum Rate
04/26/2015 01:27 Dry 43.2F 47F - - - - - 0 mhos 0 None None - -
04/26/2015 01:17 Dry 43.2F 47F - - - - - 0 mhos 0 None None - -
04/26/2015 01:12 Dry 43.2F 47F - - - - - 0 mhos 0 None None - -
04/26/2015 01:07 Dry 43.2F 47F - - - - - 0 mhos 0 None None - -
04/26/2015 00:57 Dry 43.3F 47F - - - - - 0 mhos 0 None None - -
04/26/2015 00:57 Dry 43.3F 47F - - - - - 0 mhos 0 None None - -
04/26/2015 00:47 Dry 43.9F 47F - - - - - 0 mhos 0 None None - -
04/26/2015 00:42 Dry 44.1F 48F - - - - - 0 mhos 0 None None - -
04/26/2015 00:37 Dry 44.1F 48F - - - - - 0 mhos 0 None None - -
04/26/2015 00:27 Dry 44.2F 48F - - - - - 0 mhos 0 None None - -
04/26/2015 00:26 Dry 44.2F 48F - - - - - 0 mhos 0 None None - -
04/26/2015 00:16 Dry 44.2F 48F - - - - - 0 mhos 0 None None - -
04/26/2015 00:12 Dry 44.2F 48F - - - - - 0 mhos 0 None None - -
04/26/2015 00:06 Dry 44.2F 48F - - - - - 0 mhos 0 None None - -
04/26/2015 00:01 Dry 44.2F 49F - - - - - 0 mhos 0 - - - -
Date/Time
(MDT)
Sf
Temp Chem Water Layer Surface Precipitation
Sf Sub Frz Factor Pct Depth IcePct Cond Salin Type Intens Accum Rate
04/25/2015 23:56 Dry 44.2F 49F - - - - - 0 mhos 0 None None - -
04/25/2015 23:46 Dry 44.6F 49F - - - - - 0 mhos 0 None None - -
04/25/2015 23:42 Dry 44.8F 49F - - - - - 0 mhos 0 None None - -
04/25/2015 23:36 Dry 45.0F 50F - - - - - 0 mhos 0 None None - -
04/25/2015 23:27 Dry 45.7F 50F - - - - - 0 mhos 0 None None - -
04/25/2015 23:26 Dry 45.9F 50F - - - - - 0 mhos 0 None None - -
04/25/2015 23:16 Dry 46.4F 50F - - - - - 0 mhos 0 None None - -
04/25/2015 23:12 Dry 46.6F 50F - - - - - 0 mhos 0 None None - -
04/25/2015 23:06 Dry 46.6F 51F - - - - - 0 mhos 0 None None - -
04/25/2015 22:57 Dry 46.8F 51F - - - - - 0 mhos 0 None None - -
04/25/2015 22:56 Dry 46.8F 51F - - - - - 0 mhos 0 None None - -
04/25/2015 22:46 Dry 47.1F 51F - - - - - 0 mhos 0 None None - -
04/25/2015 22:42 Dry 47.1F 51F - - - - - 0 mhos 0 None None - -
04/25/2015 22:36 Dry 47.1F 52F - - - - - 0 mhos 0 None None - -
04/25/2015 22:27 Dry 47.1F 52F - - - - - 0 mhos 1 None None - -
Date/Time
(MDT)
Sf
Temp Chem Water Layer Surface Precipitation
Sf Sub Frz Factor Pct Depth IcePct Cond Salin Type Intens Accum Rate
04/25/2015 22:26 Dry 47.3F 52F - - - - - 0 mhos 1 None None - -
04/25/2015 22:16 Dry 48.0F 52F - - - - - 0 mhos 0 None None - -
04/25/2015 22:12 Dry 48.2F 53F - - - - - 0 mhos 0 None None - -
04/25/2015 22:06 Dry 48.4F 53F - - - - - 0 mhos 0 None None - -
04/25/2015 21:57 Dry 48.6F 53F - - - - - 0 mhos 0 None None - -
04/25/2015 21:56 Dry 48.6F 53F - - - - - 0 mhos 0 None None - -
04/25/2015 21:46 Dry 48.7F 53F - - - - - 0 mhos 0 None None - -
04/25/2015 21:42 Dry 48.7F 54F - - - - - 0 mhos 0 None None - -
04/25/2015 21:36 Dry 48.9F 54F - - - - - 0 mhos 0 None None - -
04/25/2015 21:27 Dry 49.1F 55F - - - - - 0 mhos 0 None None - -
04/25/2015 21:25 Dry 49.1F 55F - - - - - 0 mhos 0 None None - -
04/25/2015 21:15 Dry 49.5F 55F - - - - - 0 mhos 0 None None - -
04/25/2015 21:12 Dry 49.5F 55F - - - - - 0 mhos 0 None None - -
04/25/2015 21:05 Dry 49.6F 56F - - - - - 0 mhos 0 None None - -
04/25/2015 20:57 Dry 49.3F 56F - - - - - 0 mhos 1 None None - -
Date/Time
(MDT)
Sf
Temp Chem Water Layer Surface Precipitation
Sf Sub Frz Factor Pct Depth IcePct Cond Salin Type Intens Accum Rate
04/25/2015 20:55 Dry 49.6F 57F - - - - - 0 mhos 0 None None - -
04/25/2015 20:45 Dry 51.1F 58F - - - - - 0 mhos 0 None None - -
04/25/2015 20:42 Dry 51.3F 58F - - - - - 0 mhos 0 None None - -
04/25/2015 20:35 Dry 52.2F 58F - - - - - 0 mhos 0 None None - -
04/25/2015 20:27 Dry 53.2F 59F - - - - - 0 mhos 0 None None - -
04/25/2015 20:25 Dry 53.4F 59F - - - - - 0 mhos 0 None None - -
04/25/2015 20:15 Dry 54.5F 60F - - - - - 0 mhos 0 None None - -
04/25/2015 20:12 Dry 54.9F 60F - - - - - 0 mhos 0 None None - -
04/25/2015 20:05 Dry 55.8F 61F - - - - - 0 mhos 0 None None - -
04/25/2015 19:57 Dry 56.8F 62F - - - - - 0 mhos 0 None None - -
04/25/2015 19:55 Dry 57.0F 62F - - - - - 0 mhos 0 None None - -
04/25/2015 19:45 Dry 58.1F 63F - - - - - 0 mhos 0 None None - -
04/25/2015 19:42 Dry 58.5F 63F - - - - - 0 mhos 0 None None - -
04/25/2015 19:35 Dry 59.4F 64F - - - - - 0 mhos 0 None None - -
04/25/2015 19:27 Dry 60.1F 64F - - - - - 0 mhos 0 None None - -
Date/Time
(MDT)
Sf
Temp Chem Water Layer Surface Precipitation
Sf Sub Frz Factor Pct Depth IcePct Cond Salin Type Intens Accum Rate
04/25/2015 19:25 Dry 60.4F 64F - - - - - 0 mhos 0 None None - -
04/25/2015 19:15 Dry 61.5F 65F - - - - - 0 mhos 0 None None - -
04/25/2015 19:12 Dry 62.1F 65F - - - - - 0 mhos 0 None None - -
04/25/2015 19:05 Dry 62.8F 66F - - - - - 0 mhos 0 None None - -
04/25/2015 18:57 Dry 63.5F 67F - - - - - 0 mhos 0 None None - -
04/25/2015 18:55 Dry 63.9F 67F - - - - - 0 mhos 0 None None - -
04/25/2015 18:45 Dry 65.8F 68F - - - - - 0 mhos 0 None None - -
04/25/2015 18:42 Dry 66.2F 68F - - - - - 0 mhos 0 None None - -
04/25/2015 18:35 Dry 67.3F 69F - - - - - 0 mhos 0 None None - -
04/25/2015 18:27 Dry 68.2F 69F - - - - - 0 mhos 0 None None - -
04/25/2015 18:24 Dry 68.4F 69F - - - - - 0 mhos 0 None None - -
04/25/2015 18:14 Dry 69.6F 70F - - - - - 0 mhos 0 None None - -
04/25/2015 18:12 Dry 69.6F 71F - - - - - 0 mhos 0 None None - -
04/25/2015 18:04 Dry 70.3F 71F - - - - - 0 mhos 0 None None - -
04/25/2015 17:57 Dry 71.8F 72F - - - - - 0 mhos 0 None None - -
Date/Time
(MDT)
Sf
Temp Chem Water Layer Surface Precipitation
Sf Sub Frz Factor Pct Depth IcePct Cond Salin Type Intens Accum Rate
04/25/2015 17:54 Dry 72.1F 72F - - - - - 0 mhos 0 None None - -
04/25/2015 17:44 Dry 73.6F 73F - - - - - 0 mhos 0 None None - -
04/25/2015 17:42 Dry 73.8F 73F - - - - - 0 mhos 0 None None - -
04/25/2015 17:34 Dry 77.0F 73F - - - - - 0 mhos 0 None None - -
04/25/2015 17:27 Dry 76.8F 74F - - - - - 0 mhos 0 None None - -
04/25/2015 17:24 Dry 75.6F 74F - - - - - 0 mhos 0 None None - -
04/25/2015 17:14 Dry 76.5F 75F - - - - - 0 mhos 0 None None - -
04/25/2015 17:12 Dry 77.0F 75F - - - - - 0 mhos 0 None None - -
04/25/2015 17:04 Dry 81.0F 75F - - - - - 0 mhos 0 None None - -
04/25/2015 16:57 Dry 81.3F 76F - - - - - 0 mhos 0 None None - -
04/25/2015 16:54 Dry 80.2F 76F - - - - - 0 mhos 0 None None - -
04/25/2015 16:44 Dry 80.8F 77F - - - - - 0 mhos 0 None None - -
04/25/2015 16:42 Dry 81.0F 77F - - - - - 0 mhos 0 None None - -
04/25/2015 16:34 Dry 82.9F 78F - - - - - 0 mhos 0 None None - -
Change End Date:
Copyright © 1998-2005 Surface Systems, Inc.
All Rights Reserved
Send comments about the data to:
SCAN Web ® is a registered trademark of Surface Systems, Inc.
SCAN Web Version 5.6